Weather History for LKPD - March, 2012

Change the Weather History Date:

Tuesday, March 6, 2012

  Actual Average Record
Temperature  
Mean Temperature 31 °F -  
Max Temperature 39 °F - - ()
Min Temperature 23 °F - - ()
Degree Days  
Heating Degree Days 34    
Moisture  
Dew Point 19 °F    
Average Humidity 64    
Maximum Humidity 93    
Minimum Humidity 33    
Precipitation  
Precipitation 0.00 in - - ()
Sea Level Pressure  
Sea Level Pressure 30.30 in    
Wind  
Wind Speed 3 mph ()    
Max Wind Speed 8 mph    
Max Gust Speed -    
Visibility 5.0 miles    
Events      
T = Trace of Precipitation, MM = Missing Value Source: Averaged Metar Reports

Daily Weather History Graph

Daily Weather History Graph

Search for Another Location

Airport or City:

Trip Planner

Search our weather history database for the weather conditions in past years. The results will help you decide how hot, cold, wet, or windy it might be!

Date:

Astronomy

Mar. 06, 2012 Rise Set
Actual Time 6:29 AM CET 5:47 PM CET
Civil Twilight 5:57 AM CET 6:20 PM CET
Nautical Twilight 5:19 AM CET 6:57 PM CET
Astronomical Twilight 4:41 AM CET 7:35 PM CET
Moon 3:46 PM CET (3/6) 5:04 AM CET (3/6)
Length of Visible Light 12h 23m
Length of Day
11h 18m
Waxing Gibbous, 95% of the Moon is Illuminated
Mar 6
Waxing Gibbous
Mar 8
Full
Mar 15
Last Quarter
Mar 22
New
Mar 30
First Quarter

Hourly Weather History & Observations

Time (CET) Temp. Windchill Dew Point Humidity Pressure Visibility Wind Dir Wind Speed Gust Speed Precip Events Conditions
12:00 AM 28.4 °F - 23.0 °F 80% 30.21 in - Calm Calm - N/A   Clear
1:00 AM 26.6 °F - 21.2 °F 80% 30.21 in - North 1.2 mph - N/A   Clear
2:00 AM 26.6 °F - 23.0 °F 86% 30.21 in - West 2.3 mph - N/A   Clear
3:00 AM 24.8 °F - 19.4 °F 80% 30.21 in - Calm Calm - N/A   Clear
4:00 AM 23.0 °F - 21.2 °F 93% 30.21 in - SSE 1.2 mph - N/A   Clear
5:00 AM 23.0 °F - 21.2 °F 93% 30.21 in - Calm Calm - N/A   Clear
6:00 AM 23.0 °F - 19.4 °F 86% 30.24 in - Calm Calm - N/A   Clear
7:00 AM 23.0 °F - 21.2 °F 93% 30.24 in 5.0 mi Variable 2.3 mph - N/A   Unknown
8:00 AM 26.6 °F - 23.0 °F 86% 30.27 in 5.0 mi East 2.3 mph - N/A   Unknown
9:00 AM 32.0 °F - 24.8 °F 75% 30.30 in 5.0 mi Variable 2.3 mph - N/A   Unknown
10:00 AM 33.8 °F 28.6 °F 19.4 °F 56% 30.30 in - SE 5.8 mph - N/A   Clear
11:00 AM 35.6 °F 31.7 °F 19.4 °F 52% 30.30 in - SE 4.6 mph - N/A   Clear
12:00 PM 37.4 °F 32.1 °F 17.6 °F 45% 30.33 in - ESE 6.9 mph - N/A   Clear
1:00 PM 39.2 °F 35.9 °F 17.6 °F 42% 30.33 in - NNE 4.6 mph - N/A   Clear
2:00 PM 39.2 °F 34.2 °F 21.2 °F 49% 30.33 in - NE 6.9 mph - N/A   Clear
3:00 PM 39.2 °F 33.6 °F 15.8 °F 39% 30.33 in - NE 8.1 mph - N/A   Clear
4:00 PM 39.2 °F 34.2 °F 12.2 °F 33% 30.33 in - NNE 6.9 mph - N/A   Clear
5:00 PM 37.4 °F 31.4 °F 14.0 °F 38% 30.33 in - NNE 8.1 mph - N/A   Clear
6:00 PM 33.8 °F 27.7 °F 14.0 °F 44% 30.33 in - NE 6.9 mph - N/A   Clear
7:00 PM 32.0 °F 25.6 °F 15.8 °F 51% 30.36 in - NE 6.9 mph - N/A   Clear
8:00 PM 30.2 °F 24.3 °F 15.8 °F 55% 30.39 in - ENE 5.8 mph - N/A   Clear
9:00 PM 28.4 °F 24.6 °F 17.6 °F 64% 30.39 in - ENE 3.5 mph - N/A   Clear
10:00 PM 28.4 °F 22.2 °F 15.8 °F 59% 30.39 in - East 5.8 mph - N/A   Clear
11:00 PM 28.4 °F 24.6 °F 15.8 °F 59% 30.42 in - East 3.5 mph - N/A   Clear